"2010-05-22 00:00:00",132940,2.551,321.6,2.739,0.201,17.95,107.2631,17.87,18.7,56.05,0,110.6,13.35,18.68,283.6
"2010-05-22 00:00:30",132941,2.89,325.6,2.996,0.152,17.81,107.2684,17.88,18.72,56,0,110.6,13.35,18.70,287.6
"2010-05-22 00:01:00",132942,3.21,321,5.108,0.149,17.8,107.2678,17.88,18.73,55.96,0,110.6,13.35,18.70,283.0
"2010-05-22 00:01:30",132943,2.73,309.3,2.848,0.184,17.93,107.2681,17.88,18.74,56.12,0,110.6,13.35,18.70,271.3
"2010-05-22 00:02:00",132944,2.326,315.4,2.375,0.171,17.92,107.274,17.9,18.74,56.22,0,110.6,13.35,18.71,277.4
"2010-05-22 00:02:30",132945,2.188,321.2,3.312,0.302,17.83,107.2823,17.92,18.75,56.03,0,110.6,13.34,18.73,283.2
"2010-05-22 00:03:00",132946,1.819,316.4,4.682,0.204,18.04,107.301,17.97,18.78,55.76,0,110.6,13.34,18.78,278.4
"2010-05-22 00:03:30",132947,2.243,328.2,6.197,0.123,17.69,107.2989,17.96,18.79,55.66,0,110.6,13.34,18.78,290.2
"2010-05-22 00:04:00",132948,2.009,332.8,2.197,0.292,17.94,107.2995,17.96,18.79,55.7,0,110.6,13.34,18.78,294.8
"2010-05-22 00:04:30",132949,2.635,337.9,5.494,0.129,18.01,107.2965,17.96,18.8,55.39,0,110.6,13.33,18.77,299.9
"2010-05-22 00:05:00",132950,2.912,329.7,5.634,0.428,17.74,107.298,17.96,18.8,55.1,0,110.6,13.34,18.77,291.7
"2010-05-22 00:05:30",132951,2.753,330.5,4.663,0.382,17.61,107.2894,17.94,18.81,55.05,0,110.6,13.34,18.75,292.5
"2010-05-22 00:06:00",132952,2.3,320.8,4.237,0.166,17.97,107.2875,17.93,18.79,55.27,0,110.7,13.34,18.75,282.8
"2010-05-22 00:06:30",132953,2.065,319.2,4.228,0.299,17.99,107.3004,17.97,18.81,55.29,0,110.7,13.34,18.78,281.2
"2010-05-22 00:07:00",132954,1.991,317,5.408,0.214,17.9,107.3175,18.01,18.83,55.15,0,110.7,13.34,18.82,279.0
"2010-05-22 00:07:30",132955,1.584,318.8,3.387,0.133,17.97,107.3199,18.02,18.83,55.07,0,110.6,13.34,18.83,280.8
"2010-05-22 00:08:00",132956,1.413,326.6,6.014,0.123,17.89,107.3336,18.05,18.86,55.01,0,110.6,13.34,18.87,288.6
"2010-05-22 00:08:30",132957,1.766,330.4,6.039,0.231,17.54,107.3305,18.04,18.88,55,0,110.6,13.34,18.86,292.4
"2010-05-22 00:09:00",132958,2.093,325.2,6.116,0.427,17.17,107.3391,18.06,18.89,54.89,0,110.7,13.34,18.88,287.2
"2010-05-22 00:09:30",132959,2.772,324,4.183,0.265,16.66,107.3084,17.99,18.86,54.33,0,110.7,13.34,18.80,286.0
"2010-05-22 00:10:00",132960,2.086,327.3,3.631,0.18,16.84,107.2737,17.9,18.85,54.82,0,110.7,13.34,18.71,289.3
"2010-05-22 00:10:30",132961,1.936,316.4,3.627,0.181,16.99,107.2486,17.83,18.79,55.24,0,110.7,13.34,18.65,278.4
"2010-05-22 00:11:00",132962,1.973,311.4,5.508,0.156,17.08,107.2622,17.87,18.81,55.27,0,110.7,13.34,18.68,273.4
"2010-05-22 00:11:30",132963,3.099,314.5,4.632,0.298,16.8,107.2663,17.88,18.8,54.82,0,110.7,13.33,18.69,276.5
"2010-05-22 00:12:00",132964,2.178,316.3,8.52,0.525,16.9,107.266,17.88,18.8,54.64,0,110.7,13.33,18.69,278.3
"2010-05-22 00:12:30",132965,1.387,309.6,12.46,0.369,17,107.2696,17.89,18.81,54.55,0,110.7,13.33,18.70,271.6
"2010-05-22 00:13:00",132966,1.596,297.2,5.105,0.162,16.95,107.2986,17.96,18.83,54.37,0,110.7,13.33,18.78,259.2
"2010-05-22 00:13:30",132967,1.418,293.9,10.67,0.279,17.03,107.3096,17.99,18.85,54.05,0,110.7,13.33,18.80,255.9
"2010-05-22 00:14:00",132968,1.619,297.7,10.38,0.26,16.82,107.3347,18.05,18.88,53.77,0,110.7,13.33,18.87,259.7
"2010-05-22 00:14:30",132969,1.992,307.9,7.243,0.242,16.86,107.3482,18.09,18.92,53.57,0,110.7,13.33,18.90,269.9
"2010-05-22 00:15:00",132970,1.405,298.7,15.97,0.165,17.1,107.3673,18.14,18.94,53.32,0,110.7,13.33,18.95,260.7
"2010-05-22 00:15:30",132971,1.099,284.8,16.43,0.145,17.4,107.389,18.19,18.96,52.92,0,110.7,13.32,19.01,246.8
"2010-05-22 00:16:00",132972,1.305,309,6.029,0.153,17.28,107.4011,18.22,18.98,53.28,0,110.7,13.32,19.04,271.0
"2010-05-22 00:16:30",132973,1.476,295.5,8.64,0.216,17.52,107.4011,18.22,19.02,52.74,0,110.7,13.32,19.04,257.5
"2010-05-22 00:17:00",132974,1.622,311.4,10.1,0.309,17.11,107.4051,18.23,19.04,53.01,0,110.7,13.32,19.05,273.4
"2010-05-22 00:17:30",132975,1.294,309,6.49,0.177,17.15,107.4002,18.22,19.05,53.03,0,110.7,13.32,19.04,271.0
"2010-05-22 00:18:00",132976,1.377,309.4,9.25,0.149,16.8,107.3966,18.21,19.07,53.2,0,110.7,13.32,19.03,271.4
"2010-05-22 00:18:30",132977,1.664,316,8.11,0.174,16.7,107.3598,18.12,19.03,53.39,0,110.7,13.32,18.93,278.0
"2010-05-22 00:19:00",132978,1.372,304.6,6.759,0.14,16.8,107.3501,18.09,19.02,53.57,0,110.7,13.32,18.91,266.6
"2010-05-22 00:19:30",132979,1.355,306.3,2.468,0.077,16.73,107.3447,18.08,19,53.7,0,110.7,13.3,18.89,268.3
"2010-05-22 00:20:00",132980,1.219,309.6,8.02,0.127,16.69,107.3353,18.05,19,53.82,0,110.7,13.3,18.87,271.6
"2010-05-22 00:20:30",132981,1.787,317,4.15,0.214,16.47,107.3317,18.05,18.98,53.78,0,110.7,13.3,18.86,279.0
"2010-05-22 00:21:00",132982,1.502,323.3,9.94,0.152,16.49,107.3128,18,18.97,53.88,0,110.7,13.3,18.81,285.3
"2010-05-22 00:21:30",132983,2.28,333.9,11.88,0.29,16.22,107.2908,17.94,18.93,54,0,110.7,13.3,18.76,295.9
"2010-05-22 00:22:00",132984,1.852,319.1,7.422,0.237,16.44,107.2635,17.87,18.86,54.18,0,110.7,13.3,18.69,281.1
"2010-05-22 00:22:30",132985,2.888,331.5,5.18,0.368,16.12,107.248,17.83,18.82,54.19,0,110.8,13.3,18.65,293.5
"2010-05-22 00:23:00",132986,2.655,333.5,7.878,0.227,16.2,107.2123,17.74,18.75,54.33,0,110.8,13.3,18.55,295.5
"2010-05-22 00:23:30",132987,2.347,326.8,7.249,0.277,16.19,107.1802,17.66,18.68,54.39,0,110.7,13.3,18.47,288.8
"2010-05-22 00:24:00",132988,3.502,332.9,3.34,0.362,16.16,107.154,17.59,18.64,54.58,0,110.7,13.31,18.40,294.9
"2010-05-22 00:24:30",132989,3.082,332.3,6.256,0.241,16.28,107.1256,17.52,18.55,54.85,0,110.7,13.31,18.33,294.3
"2010-05-22 00:25:00",132990,3.329,329.1,5.328,0.37,16.33,107.096,17.44,18.51,55.03,0,110.7,13.32,18.25,291.1
"2010-05-22 00:25:30",132991,2.785,324.1,7.343,0.302,16.36,107.0961,17.44,18.47,55.22,0,110.7,13.32,18.25,286.1
"2010-05-22 00:26:00",132992,3.246,328.2,3.872,0.158,16.31,107.0747,17.39,18.42,55.15,0,110.7,13.32,18.20,290.2
"2010-05-22 00:26:30",132993,2.655,326.8,3.312,0.166,16.48,107.0711,17.38,18.39,55.48,0,110.7,13.32,18.19,288.8
"2010-05-22 00:27:00",132994,2.427,328.5,2.758,0.259,16.51,107.0741,17.39,18.35,55.7,0,110.7,13.32,18.20,290.5
"2010-05-22 00:27:30",132995,3.168,329.2,1.88,0.162,16.41,107.0753,17.39,18.36,55.74,0,110.7,13.33,18.20,291.2
"2010-05-22 00:28:00",132996,3.039,333.2,1.888,0.173,16.44,107.0676,17.37,18.33,55.82,0,110.7,13.33,18.18,295.2
"2010-05-22 00:28:30",132997,2.403,335.2,4.357,0.134,16.46,107.0594,17.35,18.31,55.95,0,110.7,13.33,18.16,297.2
"2010-05-22 00:29:00",132998,2.442,331,2.794,0.233,16.5,107.0586,17.35,18.29,55.99,0,110.7,13.33,18.16,293.0
"2010-05-22 00:29:30",132999,2.546,329.3,3.224,0.144,16.47,107.0558,17.34,18.3,56.08,0,110.7,13.33,18.15,291.3
"2010-05-22 00:30:00",133000,2.411,325.4,4.318,0.183,16.47,107.0586,17.35,18.28,56.09,0,110.7,13.33,18.16,287.4
"2010-05-22 00:30:30",133001,2.596,324.3,3.669,0.163,16.39,107.055,17.34,18.28,56.05,0,110.7,13.33,18.15,286.3
"2010-05-22 00:31:00",133002,2.91,325.4,6.465,0.18,16.35,107.056,17.34,18.26,55.88,0,110.7,13.33,18.15,287.4
"2010-05-22 00:31:30",133003,2.854,330.6,2.791,0.199,16.34,107.0551,17.34,18.24,55.97,0,110.7,13.33,18.15,292.6
"2010-05-22 00:32:00",133004,2.82,328.5,3.305,0.159,16.37,107.0484,17.32,18.22,56.12,0,110.7,13.33,18.13,290.5
"2010-05-22 00:32:30",133005,2.777,328.2,3.383,0.188,16.42,107.0293,17.27,18.19,56.1,0,110.7,13.33,18.08,290.2
"2010-05-22 00:33:00",133006,2.461,324.9,3.07,0.152,16.37,107.0237,17.26,18.19,56.28,0,110.7,13.33,18.07,286.9
"2010-05-22 00:33:30",133007,2.4,321.7,2.36,0.166,16.38,107.0243,17.26,18.18,56.15,0,110.7,13.32,18.07,283.7
"2010-05-22 00:34:00",133008,2.373,316.8,2.522,0.156,16.43,107.0243,17.26,18.18,56.31,0,110.7,13.32,18.07,278.8
"2010-05-22 00:34:30",133009,2.545,315.6,3.784,0.161,16.41,107.0228,17.25,18.15,56.33,0,110.7,13.32,18.07,277.6
"2010-05-22 00:35:00",133010,2.363,310.7,4.51,0.248,16.4,107.0222,17.25,18.14,56.32,0,110.7,13.32,18.06,272.7
"2010-05-22 00:35:30",133011,2.511,323,3.093,0.182,16.4,107.0198,17.25,18.14,56.29,0,110.7,13.32,18.06,285.0
"2010-05-22 00:36:00",133012,2.652,321,3.882,0.102,16.42,107.0182,17.24,18.14,56.4,0,110.7,13.32,18.05,283.0
"2010-05-22 00:36:30",133013,2.383,314.5,5.262,0.173,16.56,107.0182,17.24,18.13,56.5,0,110.7,13.31,18.05,276.5
"2010-05-22 00:37:00",133014,2.352,314.1,5.447,0.261,16.54,107.0146,17.23,18.13,56.5,0,110.7,13.31,18.04,276.1
"2010-05-22 00:37:30",133015,2.37,316.1,2.385,0.165,16.56,107.0208,17.25,18.14,56.5,0,110.7,13.31,18.06,278.1
"2010-05-22 00:38:00",133016,2.165,313.6,3.201,0.188,16.51,107.0268,17.26,18.15,56.51,0,110.7,13.31,18.08,275.6
"2010-05-22 00:38:30",133017,1.964,309.1,5.141,0.312,16.7,107.0354,17.29,18.16,56.49,0,110.7,13.31,18.10,271.1
"2010-05-22 00:39:00",133018,1.689,305.1,2.439,0.106,16.58,107.0294,17.27,18.18,56.39,0,110.7,13.3,18.08,267.1
"2010-05-22 00:39:30",133019,1.932,295.4,2.705,0.083,16.6,107.0338,17.28,18.18,56.35,0,110.7,13.3,18.09,257.4
"2010-05-22 00:40:00",133020,1.748,281.3,7.648,0.159,16.57,107.0549,17.34,18.19,56.23,0,110.7,13.3,18.15,243.3
"2010-05-22 00:40:30",133021,1.42,290.6,7.26,0.288,16.43,107.0608,17.35,18.2,56.17,0,110.7,13.3,18.16,252.6
"2010-05-22 00:41:00",133022,1.931,234,30.23,0.689,17.18,107.074,17.39,18.23,54.83,0,110.7,13.3,18.20,196.0
"2010-05-22 00:41:30",133023,2.334,242.9,15.04,0.353,17.09,107.1261,17.52,18.29,54.68,0,110.7,13.3,18.33,204.9
"2010-05-22 00:42:00",133024,3.09,219.2,9.15,0.433,17.23,107.1734,17.64,18.37,53.84,0,110.7,13.3,18.45,181.2
"2010-05-22 00:42:30",133025,3.682,224,8.47,0.485,17.47,107.2266,17.78,18.48,53.15,0,110.7,13.3,18.59,186.0
"2010-05-22 00:43:00",133026,2.592,205.4,14.81,0.289,18.21,107.2993,17.96,18.58,51.21,0,110.7,13.3,18.78,167.4
"2010-05-22 00:43:30",133027,3.08,202.5,14.5,0.483,17.96,107.397,18.21,18.75,50.39,0,110.7,13.3,19.03,164.5
"2010-05-22 00:44:00",133028,3.299,206.2,5.559,0.453,18,107.4747,18.41,18.92,49.8,0,110.7,13.3,19.23,168.2
"2010-05-22 00:44:30",133029,3.888,213.3,5.873,0.429,17.68,107.5287,18.55,19.06,49.93,0,110.7,13.3,19.37,175.3
"2010-05-22 00:45:00",133030,4.625,208.5,3.89,0.477,18.21,107.5678,18.65,19.18,48.26,0,110.7,13.3,19.47,170.5
"2010-05-22 00:45:30",133031,4.326,203.6,9.71,0.652,18.38,107.6343,18.82,19.33,46.97,0,110.7,13.3,19.64,165.6
"2010-05-22 00:46:00",133032,3.508,183,4.386,0.287,18.29,107.6909,18.97,19.44,46.66,0,110.7,13.3,19.78,145.0
"2010-05-22 00:46:30",133033,3.323,189.1,5.183,0.265,18.18,107.7348,19.08,19.58,46.56,0,110.7,13.3,19.90,151.1
"2010-05-22 00:47:00",133034,2.964,207.5,12.07,0.773,18.18,107.7745,19.18,19.68,45.88,0,110.7,13.3,20.00,169.5
"2010-05-22 00:47:30",133035,3.048,211.8,6.828,0.557,18.09,107.8037,19.26,19.77,45.73,0,110.7,13.3,20.08,173.8
"2010-05-22 00:48:00",133036,2.919,209.3,17.18,0.585,17.88,107.8047,19.26,19.86,46.4,0,110.8,13.29,20.08,171.3
"2010-05-22 00:48:30",133037,1.99,172.3,12.23,0.222,17.9,107.8071,19.26,19.9,46.27,0,110.8,13.29,20.08,134.3
"2010-05-22 00:49:00",133038,2.667,183.5,9.35,0.367,17.82,107.804,19.26,19.94,46.33,0,110.7,13.29,20.08,145.5
"2010-05-22 00:49:30",133039,2.506,215.5,9.07,0.623,17.66,107.7858,19.21,19.95,46.58,0,110.8,13.29,20.03,177.5
"2010-05-22 00:50:00",133040,2.724,203.3,9.97,0.509,17.69,107.7688,19.17,19.96,46.67,0,110.8,13.29,19.99,165.3
"2010-05-22 00:50:30",133041,3.075,209.3,4.324,0.228,17.67,107.7384,19.09,19.95,46.95,0,110.8,13.29,19.91,171.3
"2010-05-22 00:51:00",133042,2.767,216.3,5.115,0.194,17.68,107.7348,19.08,19.94,47.04,0,110.8,13.29,19.90,178.3
"2010-05-22 00:51:30",133043,2.571,219.5,7.624,0.394,17.6,107.7114,19.02,19.92,47.3,0,110.8,13.29,19.84,181.5
"2010-05-22 00:52:00",133044,2.614,226.9,6.318,0.367,17.47,107.6906,18.97,19.9,47.65,0,110.8,13.28,19.78,188.9
"2010-05-22 00:52:30",133045,1.787,226.5,5.232,0.202,17.62,107.6663,18.9,19.87,47.6,0,110.8,13.28,19.72,188.5
"2010-05-22 00:53:00",133046,1.963,212.3,11.97,0.336,17.51,107.6621,18.89,19.83,47.93,0,110.8,13.28,19.71,174.3
"2010-05-22 00:53:30",133047,2.441,206.2,7.812,0.52,17.39,107.634,18.82,19.8,48.33,0,110.8,13.28,19.64,168.2
"2010-05-22 00:54:00",133048,2.563,214.7,4.276,0.295,17.43,107.6081,18.75,19.76,48.53,0,110.8,13.28,19.57,176.7
"2010-05-22 00:54:30",133049,3.081,201.2,10.57,0.369,17.53,107.5988,18.73,19.72,48.71,0,110.8,13.27,19.55,163.2
"2010-05-22 00:55:00",133050,2.547,186.8,5.633,0.254,17.62,107.5948,18.72,19.68,48.69,0,110.8,13.27,19.54,148.8
"2010-05-22 00:55:30",133051,1.891,198.2,5.779,0.268,17.64,107.5915,18.71,19.65,48.68,0,110.8,13.27,19.53,160.2
"2010-05-22 00:56:00",133052,2.429,205.7,6.244,0.366,17.41,107.5757,18.67,19.63,49.14,0,110.8,13.27,19.49,167.7
"2010-05-22 00:56:30",133053,2.743,209.8,17.51,0.309,17.32,107.565,18.64,19.61,49.27,0,110.8,13.27,19.46,171.8
"2010-05-22 00:57:00",133054,2.427,198.7,20.57,0.357,17.32,107.5326,18.56,19.55,49.77,0,110.8,13.27,19.38,160.7
"2010-05-22 00:57:30",133055,2.703,190.2,6.477,0.289,17.45,107.5262,18.54,19.5,49.76,0,110.8,13.27,19.36,152.2
"2010-05-22 00:58:00",133056,1.993,214.1,7.65,0.279,17.23,107.4994,18.48,19.48,50.16,0,110.8,13.27,19.29,176.1
"2010-05-22 00:58:30",133057,1.91,205.6,7.348,0.38,17.2,107.4769,18.42,19.42,50.47,0,110.8,13.27,19.23,167.6
"2010-05-22 00:59:00",133058,1.985,194.7,18.06,0.311,17.39,107.4634,18.38,19.38,50.39,0,110.8,13.28,19.20,156.7
"2010-05-22 00:59:30",133059,2.307,195.5,11.12,0.266,17.35,107.4593,18.37,19.33,50.67,0,110.8,13.28,19.19,157.5
"2010-05-22 01:00:00",133060,2.402,200.8,10.16,0.165,17.39,107.4592,18.37,19.31,50.61,0,110.8,13.28,19.19,162.8
"2010-05-22 01:00:30",133061,2.455,205.1,4.291,0.131,17.18,107.436,18.31,19.28,51.08,0,110.8,13.28,19.13,167.1
"2010-05-22 01:01:00",133062,2.55,192.1,2.738,0.107,17.4,107.4184,18.27,19.25,51.12,0,110.8,13.28,19.08,154.1
"2010-05-22 01:01:30",133063,2.51,191.3,5.431,0.42,17.28,107.4127,18.25,19.21,51.45,0,110.8,13.28,19.07,153.3
"2010-05-22 01:02:00",133064,2.536,194.7,10.87,0.279,17.44,107.3888,18.19,19.18,51.37,0,110.8,13.28,19.01,156.7
"2010-05-22 01:02:30",133065,3.251,180.3,11.31,0.447,17.77,107.4084,18.24,19.19,50.42,0,110.8,13.28,19.06,142.3
"2010-05-22 01:03:00",133066,3.114,192.1,13.43,0.416,17.91,107.4384,18.32,19.2,49.83,0,110.8,13.28,19.14,154.1
"2010-05-22 01:03:30",133067,3.046,181.8,5.608,0.259,17.95,107.4739,18.41,19.26,49.54,0,110.8,13.28,19.23,143.8
"2010-05-22 01:04:00",133068,3.816,198.5,7.918,0.449,17.8,107.5056,18.49,19.31,49.66,0,110.8,13.28,19.31,160.5
"2010-05-22 01:04:30",133069,3.887,192.1,9.99,0.6,17.89,107.5183,18.52,19.34,49.34,0,110.8,13.27,19.34,154.1
"2010-05-22 01:05:00",133070,3.524,181.6,10.19,0.313,17.88,107.5445,18.59,19.38,49.12,0,110.8,13.28,19.41,143.6
"2010-05-22 01:05:30",133071,4.027,176.2,8.03,0.385,17.99,107.5528,18.61,19.43,48.9,0,110.8,13.28,19.43,138.2
"2010-05-22 01:06:00",133072,2.735,175.6,14.12,0.76,17.8,107.5791,18.68,19.46,49.08,0,110.8,13.28,19.50,137.6
"2010-05-22 01:06:30",133073,3.359,178.6,2.542,0.301,17.86,107.5792,18.68,19.47,48.98,0,110.8,13.28,19.50,140.6
"2010-05-22 01:07:00",133074,1.908,174.7,22.94,0.644,17.89,107.58,18.68,19.5,48.63,0,110.8,13.28,19.50,136.7
"2010-05-22 01:07:30",133075,1.223,207.8,10.92,0.284,17.64,107.5788,18.68,19.52,49.21,0,110.8,13.27,19.50,169.8
"2010-05-22 01:08:00",133076,1.004,185.1,11.17,0.404,17.59,107.573,18.66,19.53,49.31,0,110.8,13.27,19.48,147.1
"2010-05-22 01:08:30",133077,0.67,197.3,19.18,0.199,17.59,107.5388,18.58,19.51,49.37,0,110.8,13.27,19.39,159.3
"2010-05-22 01:09:00",133078,1.293,203,21.72,0.457,17.45,107.535,18.57,19.5,49.64,0,110.8,13.27,19.38,165.0
"2010-05-22 01:09:30",133079,1.382,164.6,19.1,0.336,17.47,107.5257,18.54,19.48,49.72,0,110.8,13.27,19.36,126.6
"2010-05-22 01:10:00",133080,1.919,179.1,5.226,0.184,17.59,107.5276,18.55,19.46,49.29,0,110.8,13.27,19.36,141.1
"2010-05-22 01:10:30",133081,1.751,188.1,8.16,0.167,17.71,107.5293,18.55,19.46,49.2,0,110.8,13.27,19.37,150.1
"2010-05-22 01:11:00",133082,2.049,187.1,3.475,0.256,17.83,107.5473,18.6,19.47,48.93,0,110.8,13.27,19.42,149.1
"2010-05-22 01:11:30",133083,1.872,183.9,9.17,0.216,17.76,107.5625,18.64,19.5,48.95,0,110.8,13.26,19.45,145.9
"2010-05-22 01:12:00",133084,1.944,197.2,5.844,0.26,17.64,107.5631,18.64,19.51,49.22,0,110.8,13.26,19.46,159.2
"2010-05-22 01:12:30",133085,1.911,199.8,9.59,0.391,17.5,107.5616,18.64,19.51,49.43,0,110.8,13.26,19.45,161.8
"2010-05-22 01:13:00",133086,1.531,223.7,13.86,0.194,17.49,107.5357,18.57,19.51,49.81,0,110.8,13.26,19.39,185.7
"2010-05-22 01:13:30",133087,1.252,205.9,13.39,0.228,17.63,107.5273,18.55,19.47,49.74,0,110.8,13.26,19.36,167.9
"2010-05-22 01:14:00",133088,1.281,210.8,8.62,0.434,17.56,107.5053,18.49,19.46,49.93,0,110.8,13.26,19.31,172.8
"2010-05-22 01:14:30",133089,1.138,214,9.61,0.51,17.62,107.4958,18.47,19.43,49.91,0,110.8,13.26,19.28,176.0
"2010-05-22 01:15:00",133090,1.176,203.9,5.677,0.321,17.52,107.4949,18.46,19.42,50.07,0,110.8,13.26,19.28,165.9
"2010-05-22 01:15:30",133091,1.035,221.4,10.97,0.265,17.5,107.4949,18.46,19.4,50.25,0,110.8,13.26,19.28,183.4
"2010-05-22 01:16:00",133092,0.804,236.8,18.6,0.185,17.33,107.4834,18.43,19.38,50.68,0,110.8,13.26,19.25,198.8
"2010-05-22 01:16:30",133093,1.183,282.4,15.29,0.536,17.12,107.4524,18.36,19.36,51.43,0,110.8,13.27,19.17,244.4
"2010-05-22 01:17:00",133094,1.407,285.8,13.6,0.362,17.26,107.4184,18.27,19.3,51.76,0,110.8,13.27,19.08,247.8
"2010-05-22 01:17:30",133095,1.23,290.5,17.62,0.271,17.05,107.3804,18.17,19.23,52.31,0,110.8,13.27,18.99,252.5
"2010-05-22 01:18:00",133096,1.385,298.6,5.339,0.205,17.08,107.3562,18.11,19.18,52.52,0,110.8,13.27,18.92,260.6
"2010-05-22 01:18:30",133097,1.169,293.3,13.86,0.186,17.16,107.326,18.03,19.12,52.74,0,110.8,13.27,18.85,255.3
"2010-05-22 01:19:00",133098,1.119,270.6,7.188,0.314,17.24,107.3157,18,19.06,52.87,0,110.8,13.27,18.82,232.6
"2010-05-22 01:19:30",133099,1.389,293.5,8.41,0.247,17.06,107.2881,17.93,19.02,53.14,0,110.8,13.27,18.75,255.5
"2010-05-22 01:20:00",133100,1.064,275,10.71,0.152,17.41,107.2857,17.93,18.96,52.9,0,110.8,13.27,18.74,237.0
"2010-05-22 01:20:30",133101,1.068,279.2,8.66,0.12,17.43,107.2842,17.92,18.93,52.81,0,110.8,13.27,18.74,241.2
"2010-05-22 01:21:00",133102,1.094,282.1,14.73,0.276,17.37,107.2853,17.93,18.92,52.76,0,110.8,13.27,18.74,244.1
"2010-05-22 01:21:30",133103,0.845,281.3,11.13,0.264,17.54,107.2886,17.94,18.91,52.84,0,110.8,13.27,18.75,243.3
"2010-05-22 01:22:00",133104,1.025,290.3,14.38,0.235,17.45,107.3109,17.99,18.9,52.68,0,110.8,13.27,18.81,252.3
"2010-05-22 01:22:30",133105,0.804,283.8,21.57,0.244,17.4,107.3125,18,18.89,52.8,0,110.8,13.26,18.81,245.8
"2010-05-22 01:23:00",133106,1.086,285.1,13.34,0.126,17.36,107.3079,17.98,18.9,52.95,0,110.8,13.26,18.80,247.1
"2010-05-22 01:23:30",133107,1.09,251.9,12.44,0.089,17.41,107.3011,17.97,18.88,52.81,0,110.8,13.27,18.78,213.9
"2010-05-22 01:24:00",133108,0.912,241.2,5.234,0.124,17.46,107.3086,17.99,18.9,52.64,0,110.8,13.26,18.80,203.2
"2010-05-22 01:24:30",133109,1.229,222,19.02,0.318,17.66,107.3143,18,18.88,52.3,0,110.8,13.26,18.82,184.0
"2010-05-22 01:25:00",133110,1.041,226.3,14.55,0.34,17.53,107.3406,18.07,18.9,52.23,0,110.8,13.26,18.88,188.3
"2010-05-22 01:25:30",133111,1.221,226.9,5.779,0.279,17.71,107.35,18.09,18.93,51.87,0,110.8,13.26,18.91,188.9
"2010-05-22 01:26:00",133112,1.643,237.1,12.93,0.569,17.68,107.3792,18.17,18.96,51.66,0,110.8,13.26,18.98,199.1
"2010-05-22 01:26:30",133113,1.74,237.9,9.4,0.424,17.82,107.4019,18.23,19.01,51.32,0,110.8,13.26,19.04,199.9
"2010-05-22 01:27:00",133114,1.68,220.9,8.59,0.356,17.75,107.4201,18.27,19.04,51.25,0,110.8,13.26,19.09,182.9
"2010-05-22 01:27:30",133115,1.703,212.6,11.78,0.323,17.64,107.4271,18.29,19.08,51.51,0,110.8,13.25,19.11,174.6
"2010-05-22 01:28:00",133116,1.316,202.9,7.025,0.157,17.74,107.4346,18.31,19.12,51.34,0,110.8,13.25,19.13,164.9
"2010-05-22 01:28:30",133117,1.275,221,9.44,0.206,17.62,107.4188,18.27,19.11,51.63,0,110.8,13.25,19.08,183.0
"2010-05-22 01:29:00",133118,1.936,213.6,6.103,0.338,17.89,107.4165,18.26,19.13,51.31,0,110.8,13.25,19.08,175.6
"2010-05-22 01:29:30",133119,2.056,215.4,4.504,0.257,17.75,107.4206,18.27,19.12,51.35,0,110.8,13.25,19.09,177.4
"2010-05-22 01:30:00",133120,1.9,232.8,9.76,0.158,17.7,107.4186,18.27,19.13,51.67,0,110.8,13.25,19.08,194.8
"2010-05-22 01:30:30",133121,2.416,218,4.646,0.207,17.94,107.4196,18.27,19.13,51.26,0,110.8,13.25,19.09,180.0
"2010-05-22 01:31:00",133122,2.219,233,3.451,0.14,17.92,107.4214,18.28,19.13,51.78,0,110.8,13.25,19.09,195.0
"2010-05-22 01:31:30",133123,2.386,230.3,4.212,0.163,17.99,107.4096,18.25,19.12,51.88,0,110.8,13.25,19.06,192.3
"2010-05-22 01:32:00",133124,2.678,220.8,6.463,0.215,18.24,107.396,18.21,19.1,51.68,0,110.8,13.25,19.03,182.8
"2010-05-22 01:32:30",133125,2.789,214.5,3.097,0.206,18.31,107.4124,18.25,19.09,51.5,0,110.8,13.26,19.07,176.5
"2010-05-22 01:33:00",133126,3.103,208.8,2.443,0.133,18.5,107.4274,18.29,19.11,51.15,0,110.8,13.26,19.11,170.8
"2010-05-22 01:33:30",133127,3.02,213.3,4.037,0.08,18.4,107.4274,18.29,19.15,51.27,0,110.8,13.26,19.11,175.3
"2010-05-22 01:34:00",133128,2.73,207.4,4.83,0.356,18.45,107.4308,18.3,19.16,51.18,0,110.8,13.26,19.12,169.4
"2010-05-22 01:34:30",133129,2.417,208.5,2.794,0.182,18.42,107.4361,18.31,19.17,51.24,0,110.8,13.26,19.13,170.5
"2010-05-22 01:35:00",133130,2.039,210,4.132,0.235,18.36,107.4319,18.3,19.18,51.21,0,110.8,13.26,19.12,172.0
"2010-05-22 01:35:30",133131,2.236,209,5.278,0.229,18.54,107.4375,18.32,19.19,50.97,0,110.7,13.26,19.13,171.0
"2010-05-22 01:36:00",133132,2.358,209.6,3.609,0.143,18.44,107.4381,18.32,19.2,51.07,0,110.8,13.26,19.13,171.6
"2010-05-22 01:36:30",133133,2.519,204.7,4.567,0.213,18.59,107.4382,18.32,19.21,50.86,0,110.8,13.26,19.13,166.7
"2010-05-22 01:37:00",133134,2.183,208.1,3.451,0.141,18.44,107.4387,18.32,19.2,51.14,0,110.7,13.26,19.14,170.1
"2010-05-22 01:37:30",133135,2.226,199.1,3.271,0.142,18.48,107.4365,18.31,19.21,51.11,0,110.7,13.26,19.13,161.1
"2010-05-22 01:38:00",133136,2.519,186.2,9.72,0.383,18.64,107.4344,18.31,19.21,51,0,110.7,13.26,19.12,148.2
"2010-05-22 01:38:30",133137,3.713,179,4.722,0.275,18.96,107.4531,18.36,19.21,50.24,0,110.7,13.27,19.17,141.0
"2010-05-22 01:39:00",133138,3.622,176.1,2.499,0.226,18.97,107.4838,18.44,19.25,50.05,0,110.7,13.27,19.25,138.1
"2010-05-22 01:39:30",133139,3.757,176.4,2.285,0.222,18.87,107.5095,18.5,19.29,50.06,0,110.7,13.27,19.32,138.4
"2010-05-22 01:40:00",133140,3.648,178.1,3.125,0.316,18.82,107.5258,18.54,19.31,50.08,0,110.7,13.27,19.36,140.1
"2010-05-22 01:40:30",133141,3.327,174.4,7.179,0.205,18.68,107.5303,18.55,19.33,50.26,0,110.7,13.27,19.37,136.4
"2010-05-22 01:41:00",133142,3.143,193.3,6.075,0.134,18.57,107.5172,18.52,19.33,50.52,0,110.7,13.27,19.34,155.3
"2010-05-22 01:41:30",133143,2.889,194.3,7.537,0.318,18.64,107.4975,18.47,19.33,50.41,0,110.7,13.28,19.29,156.3
"2010-05-22 01:42:00",133144,2.811,192.7,12.56,0.268,18.4,107.4975,18.47,19.31,50.8,0,110.7,13.28,19.29,154.7
"2010-05-22 01:42:30",133145,3.352,214.8,3.232,0.144,18.25,107.4676,18.39,19.3,51.45,0,110.7,13.28,19.21,176.8
"2010-05-22 01:43:00",133146,3.072,222.6,2.32,0.236,18.12,107.435,18.31,19.24,51.78,0,110.7,13.28,19.13,184.6
"2010-05-22 01:43:30",133147,3.143,213,6.525,0.21,18.43,107.3992,18.22,19.2,51.87,0,110.7,13.28,19.03,175.0
"2010-05-22 01:44:00",133148,3.633,207,1.702,0.131,18.23,107.3959,18.21,19.16,51.94,0,110.7,13.28,19.03,169.0
"2010-05-22 01:44:30",133149,3.358,206.8,7.012,0.251,18.36,107.3821,18.17,19.14,52,0,110.7,13.28,18.99,168.8
"2010-05-22 01:45:00",133150,3.9,187.7,6.56,0.291,18.87,107.3866,18.19,19.12,51.14,0,110.7,13.28,19.00,149.7
"2010-05-22 01:45:30",133151,5.497,185.1,1.814,0.188,19.53,107.4185,18.27,19.16,49.26,0,110.7,13.28,19.08,147.1
"2010-05-22 01:46:00",133152,5.206,187.8,4.048,0.341,19.43,107.4903,18.45,19.24,48.58,0,110.7,13.28,19.27,149.8
"2010-05-22 01:46:30",133153,5.353,181.2,4.239,0.445,19.4,107.5544,18.62,19.35,48.23,0,110.7,13.28,19.43,143.2
"2010-05-22 01:47:00",133154,4.89,179.5,4.437,0.558,19.41,107.6114,18.76,19.44,47.46,0,110.7,13.28,19.58,141.5
"2010-05-22 01:47:30",133155,4.198,182.3,5.371,0.506,19.16,107.656,18.88,19.53,47.77,0,110.7,13.28,19.70,144.3
"2010-05-22 01:48:00",133156,4.781,183.3,2.316,0.267,19.25,107.6782,18.93,19.6,47.41,0,110.7,13.28,19.75,145.3